Location: Cheadle
(51.0146°N, 113.5417°W)
Time: 14:38:44
(UTC+00:00)

BlueWalker 3 - Pass Details

Date: 17 April 2024
Orbit: 482 x 494 km, 53.2° (Epoch: 19 May)

Event Time Altitude Azimuth Distance (km) Brightness Sun altitude
Rises 03:35:28 0° 195° (SSW) 2,563 5.4 -9.8°
Reaches altitude 10° 03:38:16 10° 173° (S) 1,689 4.2 -10.2°
Maximum altitude 03:40:38 16° 135° (SE) 1,366 3.5 -10.5°
Enters shadow 03:41:09 16° 125° (SE) 1,384 3.5 -10.5°
